NOAA NWS Hourly Roundups by Site

Regional Weather Roundup for Phoenix, AZ

To Select Another Site Choose from List

Select Site:  

000
ASUS45 KPSR 200010
RWRAZ

ARIZONA HOURLY REGIONAL WEATHER ROUNDUP
NATIONAL WEATHER SERVICE PHOENIX AZ
500 PM MST FRI APR 19 2019

NOTE: FAIR INDICATES FEW OR NO CLOUDS BELOW 12,000 FEET WITH NO
SIGNIFICANT WEATHER AND/OR OBSTRUCTIONS TO VISIBILITY.

AZZ001>003-036-200100-
NORTHWEST ARIZONA

CITY           SKY/WX    TMP DP  RH WIND       PRES   REMARKS
BULLHEAD CITY  MOSUNNY   95  25   8 SW6       29.76F
KINGMAN        MOSUNNY   83  30  14 SW16      29.94F
6HR MIN TEMP:  80; 6HR MAX TEMP:  86;

$$

AZZ004>008-015-016-018-200100-
NORTH CENTRAL ARIZONA

CITY           SKY/WX    TMP DP  RH WIND       PRES   REMARKS
GRAND CANYON   SUNNY     73  12   9 SW12G23   30.13F
6HR MIN TEMP:  67; 6HR MAX TEMP:  76;

WILLIAMS       MOSUNNY   72  10   9 SE12G17   30.15
PRESCOTT       SUNNY     79  13   8 S8G23     30.04F
6HR MIN TEMP:  75; 6HR MAX TEMP:  83;

FLAGSTAFF      SUNNY     69   7   9 SW13      30.17F
6HR MIN TEMP:  66; 6HR MAX TEMP:  74;

PAYSON         SUNNY     79  12   8 SW7G15    30.08
PAGE           MOSUNNY   80  21  11 NE9       29.98F
6HR MIN TEMP:  68; 6HR MAX TEMP:  83;

$$

AZZ009>014-017-200100-
NORTHEAST ARIZONA

CITY           SKY/WX    TMP DP  RH WIND       PRES   REMARKS
WINSLOW        SUNNY     83  15   8 E9G17     30.02F
6HR MIN TEMP:  70; 6HR MAX TEMP:  84;

SAINT JOHNS    SUNNY     80   6   6 N8        30.08F
6HR MIN TEMP:  71; 6HR MAX TEMP:  81;

WINDOW ROCK    SUNNY     75  16  10 SW7       30.15F
6HR MIN TEMP:  66; 6HR MAX TEMP:  77;

SHOW LOW       SUNNY     77  12   8 S13       30.15
$$

AZZ540-542>544-546-548-200100-
GREATER PHOENIX AREA

CITY           SKY/WX    TMP DP  RH WIND       PRES   REMARKS
PHOENIX        MOSUNNY   97  20   6 S6        29.76F
6HR MIN TEMP:  89; 6HR MAX TEMP:  99;

BUCKEYE        MOSUNNY   95  18   6 CALM      29.78
LUKE AFB       SUNNY     97  19   6 N6        29.75F
6HR MIN TEMP:  96; 6HR MAX TEMP:  98;

DEER VALLEY    SUNNY     95  22   7 VRB3      29.80F
6HR MIN TEMP:  88; 6HR MAX TEMP:  97;

SCOTTSDALE     SUNNY     95  15   5 S6        29.81F
6HR MIN TEMP:  86; 6HR MAX TEMP:  97;

MESA-FALCON    SUNNY     97   9   4 S9        29.78F
6HR MIN TEMP:  86; 6HR MAX TEMP:  98;

MESA-GATEWAY   MOSUNNY   97  19   6 E5        29.80F
CHANDLER       SUNNY     97  21   6 SW7       29.78F
$$

AZZ539-553-200100-
SOUTHWEST MARICOPA COUNTY AND PINAL COUNTY

CITY           SKY/WX    TMP DP  RH WIND       PRES   REMARKS
CASA GRANDE    SUNNY     97  28   8 W8        29.80F
6HR MIN TEMP:  85; 6HR MAX TEMP:  98;

GILA BEND      MOSUNNY  101  16   5 SW18      29.73F
6HR MIN TEMP:  93; 6HR MAX TEMP: 103;

$$

AZZ503-504-507>509-200100-
SOUTHEAST ARIZONA

CITY           SKY/WX    TMP DP  RH WIND       PRES   REMARKS
TUCSON         SUNNY     96   4   3 VRB5      29.88F
6HR MIN TEMP:  90; 6HR MAX TEMP:  97;

DAVIS-MONTHAN  SUNNY     95   9   4 W8        29.86
6HR MIN TEMP:  94; 6HR MAX TEMP:  96;

RYAN FIELD     SUNNY     97  14   5 SW13G20   29.86F
NOGALES        MOSUNNY   90   5   4 S10       29.97F
6HR MIN TEMP:  86; 6HR MAX TEMP:  93;

SIERRA VISTA   SUNNY     86   7   5 S9        30.04
6HR MIN TEMP:  81; 6HR MAX TEMP:  87;

DOUGLAS        SUNNY     85  13   7 S12       30.01F
6HR MIN TEMP:  80; 6HR MAX TEMP:  87;

SAFFORD        SUNNY     91   5   4 VRB3      29.93F
6HR MIN TEMP:  82; 6HR MAX TEMP:  92;

$$

AZZ532-200100-
SOUTHWEST ARIZONA

CITY           SKY/WX    TMP DP  RH WIND       PRES   REMARKS
YUMA           SUNNY     97  26   8 S9        29.73F
6HR MIN TEMP:  90; 6HR MAX TEMP:  98;

$$

CAZ041-043-047-048-061-525>527-560>570-200100-
SOUTHERN CALIFORNIA

CITY           SKY/WX    TMP DP  RH WIND       PRES   REMARKS
DOWNTOWN L.A.  MOSUNNY   62  53  72 VRB6      29.89F
6HR MIN TEMP:  62; 6HR MAX TEMP:  73;

L.A. AIRPORT   CLOUDY    58  52  80 SW16      29.91S
6HR MIN TEMP:  58; 6HR MAX TEMP:  63;

SAN DIEGO      PTSUNNY   62  53  72 NW9       29.94
6HR MIN TEMP:  62; 6HR MAX TEMP:  67;

BURBANK        SUNNY     69  50  50 S12       29.87S
6HR MIN TEMP:  69; 6HR MAX TEMP:  80;

ONTARIO        MOSUNNY   81  55  40 W15G23    29.85F
6HR MIN TEMP:  81; 6HR MAX TEMP:  90;

RIVERSIDE      MOSUNNY   78  51  38 W14G26    29.84F
6HR MIN TEMP:  77; 6HR MAX TEMP:  86;

PALM SPRINGS   SUNNY     97  29   9 MISG      29.75F
6HR MIN TEMP:  92; 6HR MAX TEMP:  99;

EL CENTRO NAS  MOSUNNY   97  29   9 NE3       29.72F
6HR MIN TEMP:  89; 6HR MAX TEMP:  98;

IMPERIAL       SUNNY     97  30   9 E5        29.70F
6HR MIN TEMP:  89; 6HR MAX TEMP:  98;

BLYTHE         PTSUNNY   99  21   6 S9        29.73F
6HR MIN TEMP:  86; 6HR MAX TEMP:  99;

NEEDLES        MOSUNNY   96  27   8 SW7       29.76F
6HR MIN TEMP:  86; 6HR MAX TEMP:  98;

$$

NVZ020-UTZ003-200100-
SOUTHERN NEVADA-UTAH

CITY           SKY/WX    TMP DP  RH WIND       PRES   REMARKS
LAS VEGAS      PTSUNNY   88  27  11 VRB6      29.83F
6HR MIN TEMP:  79; 6HR MAX TEMP:  90;

SALT LAKE CITY PTSUNNY   75  43  31 CALM      29.98F
6HR MIN TEMP:  66; 6HR MAX TEMP:  76;

$$

NMZ009-TXZ055-200100-
NEW MEXICO-WEST TEXAS

CITY           SKY/WX    TMP DP  RH WIND       PRES   REMARKS
ALBUQUERQUE    SUNNY     75  27  17 W6        30.10F
6HR MIN TEMP:  64; 6HR MAX TEMP:  76;

EL PASO        MOSUNNY   83  18   9 NE5       30.05F
6HR MIN TEMP:  73; 6HR MAX TEMP:  85;

$$


........................KEY........................
SKY/WX - SKY CONDITION/WEATHER
TMP    - TEMPERATURE IN FAHRENHEIT
DP     - DEW POINT IN FAHRENHEIT
RH     - RELATIVE HUMIDITY IN PERCENT
WIND   - DIRECTION AND SPEED IN MILES PER HOUR (MPH)
VRB    - VARIABLE WIND DIRECTION
PRES   - MEAN SEA LEVEL PRESSURE IN INCHES OF MERCURY
         F - FALLING PRESSURE   R - RISING PRESSURE
         S - STEADY PRESSURE
VSB    - VISIBILITY IN MILES
HX     - HEAT INDEX IN FAHRENHEIT
WCI    - WIND CHILL INDEX IN FAHRENHEIT
TC     - TEMPERATURE IN CELSIUS WHICH IS ALSO KNOWN AS
         TEMPERATURE IN CENTIGRADE
AFB    - AIR FORCE BASE
         LUKE AFB IS LUKE AIR FORCE BASE
         DAVIS-MONTHAN IS DAVIS-MONTHAN AIR FORCE BASE
NAS    - NAVAL AIR STATION
         EL CENTRO NAS IS EL CENTRO NAVAL AIR STATION
N/A    - NOT AVAILABLE



 

View Past Reports for Phoenix, AZ.

Products Courtesy of NOAA-NWS
NWS Information Parsing Script by Ken True at Saratoga Weather - Script by SE Lincoln Weather.